Regional Weather Roundup
Issued by NWS

Home | Current Version | Previous Version | Text Only | Print | Product List | Glossary On
Versions: 1 2 3 4 5 6 7 8 9 10 11 12 13 14 15 16 17 18 19 20 21 22 23 24 25 26 27 28 29 30 31 32 33 34 35 36 37 38 39 40 41 42 43 44 45 46 47 48 49 50
000
ASUS43 KLSX 302159
RWRMO

WEATHER SUMMARY FOR MISSOURI
NATIONAL WEATHER SERVICE SPRINGFIELD MO
500 PM CDT SAT AUG 30 2014

NOTE: "FAIR" INDICATES FEW OR NO CLOUDS BELOW 12,000 FEET WITH NO
       SIGNIFICANT WEATHER AND/OR OBSTRUCTIONS TO VISIBILITY.
       CURRENT SKY AND/OR WEATHER CONDITIONS ARE NOT AVAILABLE FOR
       CHILLICOTHE AND FARMINGTON.

MOZ001>031-035>038-043-044-053-054-302300-
...NORTHERN AND WESTERN MISSOURI...

CITY           SKY/WX    TMP DP  RH WIND       PRES   REMARKS
KANSAS CTY INT MOSUNNY   85  66  53 W5        29.89F
KANSAS C DTWN  SUNNY     88  65  46 W6        29.87F HX  90
LEE`S SUMMIT   SUNNY     86  66  51 CALM      29.89F
ST JOSEPH      PTSUNNY   84  68  58 S3        29.88F
KIRKSVILLE     MOSUNNY   85  67  54 W7        29.90F

$$
MOZ066>068-077>081-088>096-101>105-302300-
...SOUTHWEST MISSOURI...

CITY           SKY/WX    TMP DP  RH WIND       PRES   REMARKS
SPRINGFIELD    CLOUDY    75  65  70 NW13G20   29.94R THUNDER
JOPLIN         PTSUNNY   92  61  35 N6        29.87F HX  92

$$
MOZ032>034-039>042-045>050-055>058-069>072-302300-
...CENTRAL MISSOURI...

CITY           SKY/WX    TMP DP  RH WIND       PRES   REMARKS
COLUMBIA       PTSUNNY   83  68  60 CALM      29.88F
JEFFERSON CITY PTSUNNY   84  72  67 E6        29.87R
ROLLA          TSTM      69  67  93 S9        29.91F
SEDALIA        SUNNY     89  66  46 NW6       29.89F HX  91
OSAGE BEACH    PTSUNNY   81  70  69 SE6       29.90S

$$
MOZ051-052-059>065-302300-
...EAST CENTRAL MISSOURI...

CITY           SKY/WX    TMP DP  RH WIND       PRES   REMARKS
ST LOUIS INTL  PTSUNNY   85  72  65 VRB6      29.90S HX  91
SPIRIT OF STL  PTSUNNY   83  72  69 CALM      29.87F
ST CHARLES     PTSUNNY   85  71  63 W6        29.87F HX  90

$$
MOZ072>076-082>087-097>100-106>115-302300-
...SOUTH CENTRAL AND SOUTHEAST MISSOURI...

CITY           SKY/WX    TMP DP  RH WIND       PRES   REMARKS
CAPE GIRARDEAU CLOUDY    80  71  74 S9        29.97S
FARMINGTON     MOSUNNY   82  70  65 S13       29.95F
POPLAR BLUFF   PTSUNNY   81  67  62 S10       29.94F
WEST PLAINS    PTSUNNY   80  69  69 S7        29.96F

$$


USA.gov is the U.S. government's official web portal to all federal, state and local government web resources and services.